Overview Statistics Trail Chart Weather Telemetry Raw packets
 

This is the latest recevied weather packets stored in our database for station/object W5ITZ. If no packets are shown the sender has not sent any weather packets the latest 10 day(s).

<< 77 78 79 80 81 82 83 >>
Time Temp. Humidity Pressure Rain* Wind** Luminosity Snow
1787668704 28.89° C 80% 1017.6 hPa 0 mm - 403 W/m² -
1787668401 28.89° C 80% 1017.4 hPa 0 mm - 444 W/m² -
1787668100 28.89° C 81% 1017.4 hPa 0 mm - 385 W/m² -
1787667795 28.89° C 81% 1017.4 hPa 0 mm - 388 W/m² -
1787667491 28.89° C 83% 1017.2 hPa 0 mm - 375 W/m² -
1787667187 28.33° C 84% 1017.5 hPa 0 mm - 345 W/m² -
1787666881 28.33° C 85% 1017.2 hPa 0 mm - 278 W/m² -
1787666577 28.33° C 86% 1017 hPa 0 mm - 285 W/m² -
1787666271 27.78° C 87% 1017.1 hPa 0 mm - 252 W/m² -
1787665966 27.78° C 87% 1017.3 hPa 0 mm - 118 W/m² -
1787665661 27.78° C 89% 1017 hPa 0 mm - 149 W/m² -
1787665356 27.78° C 90% 1017.2 hPa 0 mm - 207 W/m² -
1787665052 27.78° C 91% 1017 hPa 0 mm - 198 W/m² -
1787664749 27.22° C 92% 1017.1 hPa 0 mm - 183 W/m² -
1787664448 27.22° C 93% 1017 hPa 0 mm - 168 W/m² -
1787664144 27.22° C 94% 1017.1 hPa 0 mm - 112 W/m² -
1787663843 26.67° C 94% 1016.9 hPa 0 mm - 79 W/m² -
1787663538 26.67° C 94% 1017.2 hPa 0 mm - 67 W/m² -
1787663234 26.67° C 94% 1016.7 hPa 0 mm - 67 W/m² -
1787662930 26.67° C 95% 1016.7 hPa 0 mm - 55 W/m² -
1787662629 26.11° C 95% 1017 hPa 0 mm - 62 W/m² -
1787662325 26.11° C 95% 1016.6 hPa 0 mm - 57 W/m² -
1787662021 25.56° C 95% 1016.4 hPa 0 mm - 51 W/m² -
1787661717 25.56° C 95% 1016.9 hPa 0 mm - 42 W/m² -
1787661415 25.56° C 96% 1016.8 hPa 0 mm - 38 W/m² -

* Rain latest hour (hover to see other rain measurements)
** Current wind speed in m/s (hover to see current wind gust speed)